Regional Weather Roundup
Issued by NWS

Home | Current Version | Previous Version | Text Only | Print | Product List | Glossary Off
Versions: 1 2 3 4 5 6 7 8 9 10 11 12 13 14 15 16 17 18 19 20 21 22 23 24 25 26 27

000
ASUS45 KSLC 150210
RWRUT

UTAH REGIONAL WEATHER ROUNDUP
NATIONAL WEATHER SERVICE SALT LAKE CITY UT
800 PM MDT MON APR 14 2014

UTZ001>011-023>025-150300-

NORTHERN UTAH

CITY           SKY/WX    TMP DP  RH WIND       PRES   REMARKS
HILL AFB       CLEAR     47  -4  12 SE7       30.20F
LOGAN          CLEAR     50  19  29 S9        30.17F
OGDEN          CLEAR     50  -4  10 SE8       30.19F
PROVO AIRPORT  CLEAR     52  21  30 CALM      30.20F
SALT LAKE CITY PTCLDY    50  11  20 N6        30.19F
VERNAL         CLEAR     41  16  36 E5        30.20F
WENDOVER       CLEAR     55   5  13 S8        30.17F
HEBER CITY     CLEAR     45  12  26 SW10      30.19R
WEST JORDAN    CLEAR     48  12  23 NW7       30.20F

$$

UTZ012>022-026-027-150300-

SOUTHERN UTAH

CITY           SKY/WX    TMP DP  RH WIND       PRES   REMARKS
BRYCE CANYON   CLEAR     42  13  30 SE14      30.24S
CEDAR CITY     CLEAR     51   5  15 NE5       30.18F
MILFORD        CLEAR     52  -3  10 NE8       30.18F
MOAB/CYNLANDS  CLEAR     48  11  22 S5        30.21F
PRICE          CLEAR     47  14  26 SE10      30.20S
ST GEORGE      CLEAR     70  14  11 CALM      30.11S

$$

REGIONAL REPORTS     COLORADO/ARIZONA

CITY           SKY/WX    TMP DP  RH WIND       PRES   REMARKS
CRAIG, CO      CLEAR     31  17  56 S5        30.22F WCI  26
GRAND JUNCTION CLEAR     43  17  35 NW3       30.23F
RIFLE          CLEAR     41  17  38 W6        30.23S
MONTROSE       CLEAR     41  17  38 E5        30.27S
CORTEZ         CLEAR     45  10  24 NW8       30.20S
PAGE, AZ       CLEAR     57  -3   8 E6        30.19S
GRAND CANYON   CLEAR     48   5  17 NE3       30.24F
KINGMAN        CLEAR     68  -1   6 N10       30.08F
FLAGSTAFF      CLEAR     46   7  20 E6        30.24S

$$

REGIONAL REPORTS    NEVADA/IDAHO/WYOMING

CITY           SKY/WX    TMP DP  RH WIND       PRES   REMARKS
LAS VEGAS, NV  PTCLDY    73   4   7 S5        30.04F
ELY            CLEAR     57   5  12 SW10      30.16F
ELKO           CLEAR     59   8  13 W7        30.12F
POCATELLO, ID  CLEAR     53  11  18 SW12      30.13F
BURLEY         CLEAR     54  17  23 NW5       30.10F
EVANSTON, WY   PTCLDY    39  11  31 W13       30.20S WCI  31
ROCK SPRINGS   CLEAR     41   5  22 NW15      30.13S

$$



USA.gov is the U.S. government's official web portal to all federal, state and local government web resources and services.